Regional Weather Roundup
Issued by NWS Sterling, VA

Home | Current Version | Previous Version | Graphics & Text | Print | Product List | Glossary On
Versions: 1 2 3 4 5 6 7 8 9 10 11 12 13 14 15 16 17 18 19 20 21 22 23 24 25 26 27 28 29 30 31 32 33 34 35 36 37 38 39 40 41 42 43 44 45 46 47 48 49 50
000
ASUS41 KLWX 040710
RWRLWX

REGIONAL WEATHER ROUNDUP
NATIONAL WEATHER SERVICE BALTIMORE MD/WASHINGTON DC
300 AM EDT MON MAY 04 2015

Note: "FAIR" indicates few or no clouds below 12,000 feet
with no significant weather and/or obstructions to visibility.
 TC=TEMPERATURE CELSIUS

 * =Non NWS site. Station does not report precipitation (e.g. rain,
    snow, etc.), thunder, or fog.

DCZ001-MDZ009-015-VAZ040>042-051-053>054-040800-
WASHINGTON METRO

CITY           SKY/WX    TMP DP  RH WIND       PRES   REMARKS
WASHINGTON NAT MOCLDY    62  52  69 S5        30.18S
DULLES         PTCLDY    55  44  66 S5        30.17S
ANDREWS AFB    CLEAR     55  46  70 S3        30.16S
FT BELVOIR     CLEAR     50  48  93 CALM      30.18S
QUANTICO       CLEAR     54  49  83 W5        30.19S
COLLEGE PARK*  CLEAR     52  50  93 CALM      30.17S
LEESBURG*      CLEAR     52  48  87 SW7       30.18S
MANASSAS*      CLEAR     50  50 100 CALM      30.18S
GAITHERSBURG*  CLEAR     54  45  71 CALM      30.21S

$$

MDZ006>007-011-014-040800-
BALTIMORE METRO

CITY           SKY/WX    TMP DP  RH WIND       PRES   REMARKS
BWI AIRPORT    PTCLDY    58  45  62 CALM      30.16S
MD SCIENCE CTR   N/A     62  45  53 MISG      30.17S
MARTIN STATE   CLEAR     54  52  94 CALM      30.18S
ANNAPOLIS      CLEAR     58  51  78 CALM      30.16S
FORT MEADE*    CLEAR     46  45  93 CALM      30.19S

$$

MDZ012-015-019>023-040800-
MARYLAND EASTERN SHORE

CITY           SKY/WX    TMP DP  RH WIND       PRES   REMARKS
OCEAN CITY     CLEAR     48  47  96 SW3       30.19S
SALISBURY      PTCLDY    50  47  89 CALM      30.18F
BAY BRIDGE AP*   N/A    N/A N/A N/A SE3       30.17S
CAMBRIDGE*     CLEAR     55  50  82 SE3       30.18S
EASTON*        CLEAR     59  50  72 CALM      30.21S

$$

MDZ017>025-040800-
SOUTHERN MARYLAND

CITY           SKY/WX    TMP DP  RH WIND       PRES   REMARKS
PATUXENT RIVER CLEAR     62  46  55 SW9       30.17F
ST INIGOES     CLEAR     54  48  80 CALM      30.18S
LEONARDTOWN*   CLEAR     57  45  62 CALM      30.20S

$$

MDZ003>005-040800-
NORTH CENTRAL MARYLAND

CITY           SKY/WX    TMP DP  RH WIND       PRES   REMARKS
FREDERICK*     CLEAR     50  45  81 SE3       30.19S
HAGERSTOWN APT CLEAR     61  42  49 S3        30.16S
WESTMINSTER*   MOCLDY    64  43  45 SW3       30.17S

$$

MDZ501>502-040800-
WESTERN MARYLAND

CITY           SKY/WX    TMP DP  RH WIND       PRES   REMARKS
OAKLAND*       CLEAR     57  34  41 S6        30.22S
CUMBERLAND*    CLEAR     50  45  81 CALM      30.21F

$$

VAZ025>031-040800-
SHENANDOAH VALLEY

CITY           SKY/WX    TMP DP  RH WIND       PRES   REMARKS
WINCHESTER*    PTCLDY    55  39  54 SW5       30.18R
FRONT ROYAL*   FAIR      54  45  71 S5        30.17S
LURAY*         CLOUDY    50  50 100 CALM      30.20S
NEW MARKET*    FAIR      47  45  91 CALM      30.19S
STAUNTON*      CLEAR     46  43  87 CALM      30.23S
WAYNESBORO*    FAIR      50  42  72 CALM      30.21S

$$

WVZ021-048>050-054>055-040800-
EASTERN WEST VIRGINIA PANHANDLE

CITY           SKY/WX    TMP DP  RH WIND       PRES   REMARKS
MARTINSBURG    CLEAR     53  45  74 SW3       30.17R
PETERSBURG*    CLEAR     46  42  86 CALM      30.20S

$$

VAZ036>039-050-040800-
CENTRAL FOOTHILLS

CITY           SKY/WX    TMP DP  RH WIND       PRES   REMARKS
CHARLOTTESVILL PTCLDY    51  46  83 CALM      30.19S
CULPEPER*      NOT AVBL
ORANGE*        PTCLDY    50  46  87 CALM      30.21S
GORDONSVILLE*  FAIR      49  47  92 SW5       30.19S
WARRENTON*     FAIR      46  45  97 CALM      30.18S

$$

VAZ055>057-040800-
NORTH AND CENTRAL PIEDMONT

CITY           SKY/WX    TMP DP  RH WIND       PRES   REMARKS
FREDERICKSBRG* CLEAR     54  53  98 CALM      30.18S
STAFFORD*      CLEAR     47  32  56 CALM      30.22S

$$

NCZ024-NYZ072-PAZ021-071-VAZ022-071-040800-
OTHER REGIONAL OBSERVATIONS

CITY           SKY/WX    TMP DP  RH WIND       PRES   REMARKS
NEW YORK CITY  CLEAR     57  47  69 NE5       30.18F
PHILADELPHIA   CLEAR     58  49  72 CALM      30.17F
PITTSBURGH     PTCLDY    58  43  57 CALM      30.14R
ROANOKE        CLEAR     52  47  83 CALM      30.23S
RICHMOND       CLEAR     55  47  74 CALM      30.20S
RALEIGH        PTCLDY    57  51  80 SW5       30.24F

$$

ANZ530>537-040800-
MARINE OBSERVATIONS

STATION/POSITION TIME  TEMP    WIND        PRES
                       AIR SEA DIR/SP/G
                 (UTC) (F)     (DEG/KT/KT) (MB)
THOMAS PT LIGHT  0700   63 58  180/  9/  9 1022.1S
BALT KEY BRIDGE  0600   64     250/  2/  3 1021.1S
COVE POINT       0600   67     270/ 13/ 14 1022.3R
LEWISETTA        0600   63 64              1021.8S
SOLOMONS ISLAND  0618      60                N/A
PINEY POINT      0600          240/  3/  4   N/A

$$




USA.gov is the U.S. government's official web portal to all federal, state and local government web resources and services.